EZY82CG EGKK-LFSB

Flight info

Callsign EZY82CG
Flight time N/A
Altitude 29000
Route BOGNA L612 HAWKE UL612 VEULE DCT TEPRI UN491 POGZI DCT GELTA DCT MANAG DCT MOTUK DCT LUL G42 ARPUS
Aircraft A320/M-SDE2E3FGHIJ1RWXYZ/LB1

Departure

Time 2026-04-15 11:44
Airport London Gatwick Airport (EGKK)

Arrival

Time N/A
Airport EuroAirport Basel–Mulhouse–Freiburg (LFSB)
Time Latitude Longitude Altitude Speed Heading
2026-04-15 10:46 51.15856 -0.17436 211 ft 0 kts 348°
2026-04-15 11:35 51.15852 -0.17435 205 ft 3 kts 348°
2026-04-15 11:35 51.15827 -0.17426 213 ft 4 kts 348°
2026-04-15 11:35 51.15800 -0.17416 208 ft 4 kts 342°
2026-04-15 11:36 51.15780 -0.17400 216 ft 4 kts 286°
2026-04-15 11:36 51.15781 -0.17372 209 ft 4 kts 258°
2026-04-15 11:36 51.15783 -0.17356 209 ft 0 kts 258°
2026-04-15 11:39 51.15781 -0.17371 209 ft 6 kts 258°
2026-04-15 11:39 51.15763 -0.17477 216 ft 12 kts 238°
2026-04-15 11:39 51.15676 -0.17488 210 ft 15 kts 167°
2026-04-15 11:39 51.15572 -0.17451 210 ft 16 kts 167°
2026-04-15 11:40 51.15459 -0.17412 206 ft 17 kts 167°
2026-04-15 11:40 51.15340 -0.17371 208 ft 18 kts 168°
2026-04-15 11:40 51.15232 -0.17305 214 ft 13 kts 145°
2026-04-15 11:40 51.15184 -0.17191 210 ft 13 kts 88°
2026-04-15 11:41 51.15201 -0.17055 208 ft 12 kts 76°
2026-04-15 11:41 51.15218 -0.16939 213 ft 10 kts 77°
2026-04-15 11:41 51.15219 -0.16934 212 ft 0 kts 77°
2026-04-15 11:41 51.15221 -0.16919 210 ft 5 kts 77°
2026-04-15 11:42 51.15213 -0.16835 209 ft 8 kts 120°
2026-04-15 11:42 51.15169 -0.16797 212 ft 8 kts 166°
2026-04-15 11:42 51.15121 -0.16834 210 ft 9 kts 237°
2026-04-15 11:42 51.15107 -0.16915 208 ft 0 kts 258°
2026-04-15 11:43 51.15107 -0.16916 208 ft 1 kts 258°
2026-04-15 11:43 51.15084 -0.17082 216 ft 45 kts 257°
2026-04-15 11:43 51.14967 -0.17932 215 ft 109 kts 257°
2026-04-15 11:43 51.14764 -0.19390 214 ft 158 kts 252°
2026-04-15 11:44 51.14524 -0.21131 774 ft 161 kts 252°
2026-04-15 11:44 51.14280 -0.22871 1497 ft 163 kts 252°